Location: Ahstedt
(52.2048°N, 10.1060°E)
Time: 18:51:53
(UTC+00:00)

Cosmos 2082 Rocket - Pass Details

Date: 19 April 2026
Orbit: 831 x 853 km, 71.0° (Epoch: 13 May)

Event Time Altitude Azimuth Distance (km) Brightness Sun altitude
Exits shadow 00:01:47 24° 113° (ESE) 1,694 3.6 -26.0°
Maximum altitude 00:02:27 25° 103° (ESE) 1,673 3.7 -26.0°
Drops below altitude 10° 00:06:58 10° 50° (NE) 2,493 5.3 -25.8°
Sets 00:09:49 0° 38° (NE) 3,434 6.4 -25.7°
